#datetime,building,power
2022-01-14T00:00:00,ths,4.46
2022-01-14T00:01:00,ths,4.44
2022-01-14T00:02:00,ths,4.45
2022-01-14T00:03:00,ths,4.75
2022-01-14T00:04:00,ths,4.83
2022-01-14T00:05:00,ths,6.34
2022-01-14T00:06:00,ths,6.36
2022-01-14T00:07:00,ths,6.21
2022-01-14T00:08:00,ths,6.06
2022-01-14T00:09:00,ths,5.35
2022-01-14T00:10:00,ths,5.40
2022-01-14T00:11:00,ths,4.27
2022-01-14T00:12:00,ths,4.24
2022-01-14T00:13:00,ths,4.27
2022-01-14T00:14:00,ths,4.34
2022-01-14T00:15:00,ths,6.17
2022-01-14T00:16:00,ths,6.35
2022-01-14T00:17:00,ths,8.36
2022-01-14T00:18:00,ths,8.29
2022-01-14T00:19:00,ths,9.20
2022-01-14T00:20:00,ths,9.56
2022-01-14T00:21:00,ths,6.82
2022-01-14T00:22:00,ths,5.90
2022-01-14T00:23:00,ths,4.33
2022-01-14T00:24:00,ths,4.31
2022-01-14T00:25:00,ths,5.38
2022-01-14T00:26:00,ths,5.44
2022-01-14T00:27:00,ths,6.36
2022-01-14T00:28:00,ths,6.28
2022-01-14T00:29:00,ths,7.91
2022-01-14T00:30:00,ths,7.03
2022-01-14T00:31:00,ths,7.09
2022-01-14T00:32:00,ths,8.20
2022-01-14T00:33:00,ths,5.45
2022-01-14T00:34:00,ths,5.38
2022-01-14T00:35:00,ths,5.53
2022-01-14T00:36:00,ths,5.50
2022-01-14T00:37:00,ths,5.82
2022-01-14T00:38:00,ths,5.95
2022-01-14T00:39:00,ths,6.01
2022-01-14T00:40:00,ths,4.71
2022-01-14T00:41:00,ths,4.15
2022-01-14T00:42:00,ths,4.10
2022-01-14T00:43:00,ths,4.05
2022-01-14T00:44:00,ths,4.93
2022-01-14T00:45:00,ths,4.97
2022-01-14T00:46:00,ths,4.97
2022-01-14T00:47:00,ths,4.90
2022-01-14T00:48:00,ths,4.87
2022-01-14T00:49:00,ths,4.75
2022-01-14T00:50:00,ths,4.81
2022-01-14T00:51:00,ths,4.75
2022-01-14T00:52:00,ths,4.87
2022-01-14T00:53:00,ths,6.14
2022-01-14T00:54:00,ths,5.10
2022-01-14T00:55:00,ths,5.18
2022-01-14T00:56:00,ths,5.31
2022-01-14T00:57:00,ths,5.30
2022-01-14T00:58:00,ths,5.82
2022-01-14T00:59:00,ths,5.73
2022-01-14T01:00:00,ths,5.71
2022-01-14T01:01:00,ths,4.40
2022-01-14T01:02:00,ths,4.63
2022-01-14T01:03:00,ths,4.61
2022-01-14T01:04:00,ths,4.64
2022-01-14T01:05:00,ths,4.56
2022-01-14T01:06:00,ths,4.64
2022-01-14T01:07:00,ths,4.59
2022-01-14T01:08:00,ths,4.53
2022-01-14T01:09:00,ths,4.53
2022-01-14T01:10:00,ths,4.52
2022-01-14T01:11:00,ths,3.75
2022-01-14T01:12:00,ths,3.82
2022-01-14T01:13:00,ths,4.08
2022-01-14T01:14:00,ths,5.62
2022-01-14T01:15:00,ths,5.76
2022-01-14T01:16:00,ths,5.87
2022-01-14T01:17:00,ths,5.94
2022-01-14T01:18:00,ths,5.86
2022-01-14T01:19:00,ths,5.11
2022-01-14T01:20:00,ths,5.13
2022-01-14T01:21:00,ths,4.98
2022-01-14T01:22:00,ths,4.95
2022-01-14T01:23:00,ths,3.88
2022-01-14T01:24:00,ths,3.83
2022-01-14T01:25:00,ths,3.81
2022-01-14T01:26:00,ths,4.87
2022-01-14T01:27:00,ths,5.92
2022-01-14T01:28:00,ths,5.87
2022-01-14T01:29:00,ths,5.80
2022-01-14T01:30:00,ths,5.87
2022-01-14T01:31:00,ths,4.80
2022-01-14T01:32:00,ths,4.78
2022-01-14T01:33:00,ths,4.92
2022-01-14T01:34:00,ths,5.46
2022-01-14T01:35:00,ths,5.55
2022-01-14T01:36:00,ths,6.89
2022-01-14T01:37:00,ths,5.76
2022-01-14T01:38:00,ths,5.86
2022-01-14T01:39:00,ths,5.81
2022-01-14T01:40:00,ths,5.82
2022-01-14T01:41:00,ths,5.80
2022-01-14T01:42:00,ths,5.85
2022-01-14T01:43:00,ths,5.87
2022-01-14T01:44:00,ths,5.73
2022-01-14T01:45:00,ths,4.83
2022-01-14T01:46:00,ths,4.05
2022-01-14T01:47:00,ths,3.97
2022-01-14T01:48:00,ths,3.92
2022-01-14T01:49:00,ths,3.89
2022-01-14T01:50:00,ths,3.82
2022-01-14T01:51:00,ths,4.11
2022-01-14T01:52:00,ths,4.19
2022-01-14T01:53:00,ths,4.20
2022-01-14T01:54:00,ths,4.44
2022-01-14T01:55:00,ths,4.50
2022-01-14T01:56:00,ths,4.78
2022-01-14T01:57:00,ths,6.94
2022-01-14T01:58:00,ths,5.62
2022-01-14T01:59:00,ths,5.54
2022-01-14T02:00:00,ths,4.73
2022-01-14T02:01:00,ths,4.78
2022-01-14T02:02:00,ths,4.93
2022-01-14T02:03:00,ths,4.91
2022-01-14T02:04:00,ths,4.86
2022-01-14T02:05:00,ths,4.87
2022-01-14T02:06:00,ths,4.33
2022-01-14T02:07:00,ths,4.11
2022-01-14T02:08:00,ths,4.17
2022-01-14T02:09:00,ths,4.16
2022-01-14T02:10:00,ths,3.85
2022-01-14T02:11:00,ths,3.76
2022-01-14T02:12:00,ths,3.78
2022-01-14T02:13:00,ths,3.91
2022-01-14T02:14:00,ths,5.03
2022-01-14T02:15:00,ths,5.73
2022-01-14T02:16:00,ths,7.46
2022-01-14T02:17:00,ths,7.49
2022-01-14T02:18:00,ths,6.84
2022-01-14T02:19:00,ths,8.12
2022-01-14T02:20:00,ths,8.03
2022-01-14T02:21:00,ths,7.92
2022-01-14T02:22:00,ths,5.88
2022-01-14T02:23:00,ths,5.93
2022-01-14T02:24:00,ths,5.75
2022-01-14T02:25:00,ths,4.88
2022-01-14T02:26:00,ths,4.58
2022-01-14T02:27:00,ths,3.87
2022-01-14T02:28:00,ths,3.93
2022-01-14T02:29:00,ths,3.95
2022-01-14T02:30:00,ths,3.75
2022-01-14T02:31:00,ths,4.12
2022-01-14T02:32:00,ths,4.23
2022-01-14T02:33:00,ths,4.26
2022-01-14T02:34:00,ths,4.50
2022-01-14T02:35:00,ths,4.48
2022-01-14T02:36:00,ths,4.41
2022-01-14T02:37:00,ths,5.03
2022-01-14T02:38:00,ths,3.82
2022-01-14T02:39:00,ths,4.39
2022-01-14T02:40:00,ths,4.94
2022-01-14T02:41:00,ths,4.82
2022-01-14T02:42:00,ths,4.88
2022-01-14T02:43:00,ths,4.85
2022-01-14T02:44:00,ths,4.80
2022-01-14T02:45:00,ths,4.79
2022-01-14T02:46:00,ths,4.84
2022-01-14T02:47:00,ths,4.77
2022-01-14T02:48:00,ths,4.04
2022-01-14T02:49:00,ths,4.24
2022-01-14T02:50:00,ths,4.14
2022-01-14T02:51:00,ths,4.18
2022-01-14T02:52:00,ths,4.27
2022-01-14T02:53:00,ths,4.30
2022-01-14T02:54:00,ths,4.28
2022-01-14T02:55:00,ths,4.19
2022-01-14T02:56:00,ths,3.46
2022-01-14T02:57:00,ths,3.56
2022-01-14T02:58:00,ths,3.60
2022-01-14T02:59:00,ths,3.64
2022-01-14T03:00:00,ths,3.63
2022-01-14T03:01:00,ths,4.67
2022-01-14T03:02:00,ths,4.58
2022-01-14T03:03:00,ths,4.58
2022-01-14T03:04:00,ths,4.88
2022-01-14T03:05:00,ths,5.68
2022-01-14T03:06:00,ths,5.66
2022-01-14T03:07:00,ths,5.63
2022-01-14T03:08:00,ths,5.55
2022-01-14T03:09:00,ths,4.74
2022-01-14T03:10:00,ths,6.01
2022-01-14T03:11:00,ths,5.14
2022-01-14T03:12:00,ths,5.10
2022-01-14T03:13:00,ths,5.03
2022-01-14T03:14:00,ths,4.27
2022-01-14T03:15:00,ths,4.37
2022-01-14T03:16:00,ths,4.39
2022-01-14T03:17:00,ths,4.49
2022-01-14T03:18:00,ths,4.48
2022-01-14T03:19:00,ths,3.62
2022-01-14T03:20:00,ths,3.56
2022-01-14T03:21:00,ths,3.52
2022-01-14T03:22:00,ths,4.60
2022-01-14T03:23:00,ths,4.56
2022-01-14T03:24:00,ths,4.51
2022-01-14T03:25:00,ths,4.51
2022-01-14T03:26:00,ths,4.47
2022-01-14T03:27:00,ths,4.62
2022-01-14T03:28:00,ths,5.01
2022-01-14T03:29:00,ths,5.18
2022-01-14T03:30:00,ths,4.08
2022-01-14T03:31:00,ths,4.14
2022-01-14T03:32:00,ths,3.42
2022-01-14T03:33:00,ths,3.37
2022-01-14T03:34:00,ths,3.42
2022-01-14T03:35:00,ths,3.34
2022-01-14T03:36:00,ths,3.50
2022-01-14T03:37:00,ths,3.43
2022-01-14T03:38:00,ths,3.53
2022-01-14T03:39:00,ths,3.57
2022-01-14T03:40:00,ths,3.56
2022-01-14T03:41:00,ths,3.57
2022-01-14T03:42:00,ths,3.53
2022-01-14T03:43:00,ths,4.71
2022-01-14T03:44:00,ths,5.71
2022-01-14T03:45:00,ths,5.91
2022-01-14T03:46:00,ths,6.51
2022-01-14T03:47:00,ths,6.43
2022-01-14T03:48:00,ths,6.49
2022-01-14T03:49:00,ths,6.47
2022-01-14T03:50:00,ths,4.73
2022-01-14T03:51:00,ths,4.52
2022-01-14T03:52:00,ths,3.52
2022-01-14T03:53:00,ths,3.45
2022-01-14T03:54:00,ths,3.32
2022-01-14T03:55:00,ths,3.31
2022-01-14T03:56:00,ths,3.29
2022-01-14T03:57:00,ths,3.38
2022-01-14T03:58:00,ths,3.37
2022-01-14T03:59:00,ths,3.37
2022-01-14T04:00:00,ths,3.58
2022-01-14T04:01:00,ths,3.56
2022-01-14T04:02:00,ths,4.12
2022-01-14T04:03:00,ths,5.50
2022-01-14T04:04:00,ths,5.07
2022-01-14T04:05:00,ths,6.05
2022-01-14T04:06:00,ths,5.44
2022-01-14T04:07:00,ths,5.44
2022-01-14T04:08:00,ths,6.24
2022-01-14T04:09:00,ths,5.48
2022-01-14T04:10:00,ths,5.48
2022-01-14T04:11:00,ths,5.41
2022-01-14T04:12:00,ths,5.40
2022-01-14T04:13:00,ths,4.30
2022-01-14T04:14:00,ths,4.17
2022-01-14T04:15:00,ths,3.64
2022-01-14T04:16:00,ths,3.74
2022-01-14T04:17:00,ths,3.75
2022-01-14T04:18:00,ths,3.82
2022-01-14T04:19:00,ths,4.31
2022-01-14T04:20:00,ths,4.27
2022-01-14T04:21:00,ths,4.40
2022-01-14T04:22:00,ths,4.33
2022-01-14T04:23:00,ths,3.76
2022-01-14T04:24:00,ths,4.80
2022-01-14T04:25:00,ths,4.83
2022-01-14T04:26:00,ths,6.93
2022-01-14T04:27:00,ths,6.83
2022-01-14T04:28:00,ths,7.75
2022-01-14T04:29:00,ths,7.74
2022-01-14T04:30:00,ths,6.97
2022-01-14T04:31:00,ths,6.81
2022-01-14T04:32:00,ths,6.59
2022-01-14T04:33:00,ths,5.63
2022-01-14T04:34:00,ths,4.71
2022-01-14T04:35:00,ths,5.21
2022-01-14T04:36:00,ths,6.14
2022-01-14T04:37:00,ths,6.19
2022-01-14T04:38:00,ths,6.09
2022-01-14T04:39:00,ths,4.36
2022-01-14T04:40:00,ths,4.26
2022-01-14T04:41:00,ths,4.28
2022-01-14T04:42:00,ths,4.25
2022-01-14T04:43:00,ths,4.34
2022-01-14T04:44:00,ths,4.34
2022-01-14T04:45:00,ths,3.52
2022-01-14T04:46:00,ths,3.59
2022-01-14T04:47:00,ths,3.51
2022-01-14T04:48:00,ths,4.51
2022-01-14T04:49:00,ths,4.61
2022-01-14T04:50:00,ths,4.60
2022-01-14T04:51:00,ths,5.27
2022-01-14T04:52:00,ths,5.22
2022-01-14T04:53:00,ths,5.56
2022-01-14T04:54:00,ths,5.49
2022-01-14T04:55:00,ths,5.46
2022-01-14T04:56:00,ths,3.58
2022-01-14T04:57:00,ths,3.57
2022-01-14T04:58:00,ths,3.75
2022-01-14T04:59:00,ths,3.67
2022-01-14T05:00:00,ths,3.65
2022-01-14T05:01:00,ths,3.67
2022-01-14T05:02:00,ths,3.78
2022-01-14T05:03:00,ths,4.86
2022-01-14T05:04:00,ths,4.75
2022-01-14T05:05:00,ths,4.62
2022-01-14T05:06:00,ths,4.53
2022-01-14T05:07:00,ths,4.46
2022-01-14T05:08:00,ths,4.29
2022-01-14T05:09:00,ths,4.87
2022-01-14T05:10:00,ths,5.35
2022-01-14T05:11:00,ths,6.18
2022-01-14T05:12:00,ths,6.15
2022-01-14T05:13:00,ths,6.09
2022-01-14T05:14:00,ths,5.73
2022-01-14T05:15:00,ths,5.75
2022-01-14T05:16:00,ths,5.94
2022-01-14T05:17:00,ths,4.56
2022-01-14T05:18:00,ths,4.47
2022-01-14T05:19:00,ths,4.43
2022-01-14T05:20:00,ths,4.07
2022-01-14T05:21:00,ths,3.53
2022-01-14T05:22:00,ths,3.67
2022-01-14T05:23:00,ths,3.60
2022-01-14T05:24:00,ths,3.58
2022-01-14T05:25:00,ths,3.80
2022-01-14T05:26:00,ths,4.17
2022-01-14T05:27:00,ths,4.27
2022-01-14T05:28:00,ths,4.20
2022-01-14T05:29:00,ths,4.10
2022-01-14T05:30:00,ths,4.85
2022-01-14T05:31:00,ths,4.49
2022-01-14T05:32:00,ths,4.54
2022-01-14T05:33:00,ths,4.46
2022-01-14T05:34:00,ths,4.51
2022-01-14T05:35:00,ths,5.50
2022-01-14T05:36:00,ths,5.60
2022-01-14T05:37:00,ths,5.57
2022-01-14T05:38:00,ths,4.43
2022-01-14T05:39:00,ths,5.42
2022-01-14T05:40:00,ths,5.42
2022-01-14T05:41:00,ths,5.71
2022-01-14T05:42:00,ths,6.08
2022-01-14T05:43:00,ths,5.11
2022-01-14T05:44:00,ths,5.12
2022-01-14T05:45:00,ths,4.04
2022-01-14T05:46:00,ths,4.65
2022-01-14T05:47:00,ths,4.53
2022-01-14T05:48:00,ths,5.65
2022-01-14T05:49:00,ths,5.28
2022-01-14T05:50:00,ths,5.55
2022-01-14T05:51:00,ths,7.11
2022-01-14T05:52:00,ths,6.33
2022-01-14T05:53:00,ths,6.69
2022-01-14T05:54:00,ths,6.65
2022-01-14T05:55:00,ths,6.39
2022-01-14T05:56:00,ths,4.69
2022-01-14T05:57:00,ths,4.73
2022-01-14T05:58:00,ths,4.65
2022-01-14T05:59:00,ths,3.52
2022-01-14T06:00:00,ths,3.65
2022-01-14T06:01:00,ths,3.52
2022-01-14T06:02:00,ths,4.19
2022-01-14T06:03:00,ths,3.75
2022-01-14T06:04:00,ths,3.80
2022-01-14T06:05:00,ths,4.37
2022-01-14T06:06:00,ths,4.61
2022-01-14T06:07:00,ths,4.38
2022-01-14T06:08:00,ths,4.26
2022-01-14T06:09:00,ths,3.63
2022-01-14T06:10:00,ths,3.62
2022-01-14T06:11:00,ths,3.55
2022-01-14T06:12:00,ths,5.08
2022-01-14T06:13:00,ths,4.57
2022-01-14T06:14:00,ths,4.48
2022-01-14T06:15:00,ths,4.49
2022-01-14T06:16:00,ths,4.54
2022-01-14T06:17:00,ths,4.54
2022-01-14T06:18:00,ths,4.68
2022-01-14T06:19:00,ths,4.92
2022-01-14T06:20:00,ths,5.86
2022-01-14T06:21:00,ths,6.44
2022-01-14T06:22:00,ths,6.30
2022-01-14T06:23:00,ths,6.23
2022-01-14T06:24:00,ths,6.13
2022-01-14T06:25:00,ths,5.37
2022-01-14T06:26:00,ths,4.41
2022-01-14T06:27:00,ths,4.57
2022-01-14T06:28:00,ths,4.37
2022-01-14T06:29:00,ths,4.02
2022-01-14T06:30:00,ths,3.59
2022-01-14T06:31:00,ths,3.67
2022-01-14T06:32:00,ths,3.56
2022-01-14T06:33:00,ths,3.56
2022-01-14T06:34:00,ths,4.87
2022-01-14T06:35:00,ths,4.64
2022-01-14T06:36:00,ths,4.67
2022-01-14T06:37:00,ths,4.85
2022-01-14T06:38:00,ths,5.16
2022-01-14T06:39:00,ths,5.40
2022-01-14T06:40:00,ths,5.43
2022-01-14T06:41:00,ths,5.47
2022-01-14T06:42:00,ths,3.82
2022-01-14T06:43:00,ths,3.88
2022-01-14T06:44:00,ths,3.72
2022-01-14T06:45:00,ths,3.77
2022-01-14T06:46:00,ths,3.75
2022-01-14T06:47:00,ths,3.69
2022-01-14T06:48:00,ths,3.64
2022-01-14T06:49:00,ths,3.59
2022-01-14T06:50:00,ths,3.56
2022-01-14T06:51:00,ths,3.61
2022-01-14T06:52:00,ths,4.85
2022-01-14T06:53:00,ths,4.57
2022-01-14T06:54:00,ths,6.38
2022-01-14T06:55:00,ths,7.23
2022-01-14T06:56:00,ths,7.10
2022-01-14T06:57:00,ths,7.05
2022-01-14T06:58:00,ths,6.35
2022-01-14T06:59:00,ths,6.41
2022-01-14T07:00:00,ths,6.41
2022-01-14T07:01:00,ths,6.93
2022-01-14T07:02:00,ths,4.71
2022-01-14T07:03:00,ths,4.79
2022-01-14T07:04:00,ths,4.63
2022-01-14T07:05:00,ths,4.62
2022-01-14T07:06:00,ths,4.68
2022-01-14T07:07:00,ths,4.69
2022-01-14T07:08:00,ths,3.76
2022-01-14T07:09:00,ths,4.72
2022-01-14T07:10:00,ths,4.69
2022-01-14T07:11:00,ths,4.74
2022-01-14T07:12:00,ths,4.73
2022-01-14T07:13:00,ths,3.69
2022-01-14T07:14:00,ths,4.69
2022-01-14T07:15:00,ths,4.72
2022-01-14T07:16:00,ths,4.65
2022-01-14T07:17:00,ths,4.61
2022-01-14T07:18:00,ths,4.62
2022-01-14T07:19:00,ths,4.61
2022-01-14T07:20:00,ths,4.64
2022-01-14T07:21:00,ths,5.42
2022-01-14T07:22:00,ths,4.67
2022-01-14T07:23:00,ths,4.42
2022-01-14T07:24:00,ths,4.59
2022-01-14T07:25:00,ths,4.84
2022-01-14T07:26:00,ths,5.40
2022-01-14T07:27:00,ths,6.29
2022-01-14T07:28:00,ths,6.38
2022-01-14T07:29:00,ths,6.37
2022-01-14T07:30:00,ths,6.66
2022-01-14T07:31:00,ths,5.68
2022-01-14T07:32:00,ths,5.67
2022-01-14T07:33:00,ths,5.76
2022-01-14T07:34:00,ths,6.78
2022-01-14T07:35:00,ths,5.68
2022-01-14T07:36:00,ths,4.88
2022-01-14T07:37:00,ths,4.88
2022-01-14T07:38:00,ths,5.35
2022-01-14T07:39:00,ths,5.38
2022-01-14T07:40:00,ths,5.37
2022-01-14T07:41:00,ths,5.51
2022-01-14T07:42:00,ths,4.90
2022-01-14T07:43:00,ths,4.70
2022-01-14T07:44:00,ths,4.72
2022-01-14T07:45:00,ths,4.71
2022-01-14T07:46:00,ths,4.66
2022-01-14T07:47:00,ths,3.85
2022-01-14T07:48:00,ths,3.67
2022-01-14T07:49:00,ths,3.73
2022-01-14T07:50:00,ths,3.66
2022-01-14T07:51:00,ths,3.72
2022-01-14T07:52:00,ths,3.65
2022-01-14T07:53:00,ths,3.62
2022-01-14T07:54:00,ths,4.75
2022-01-14T07:55:00,ths,4.83
2022-01-14T07:56:00,ths,4.69
2022-01-14T07:57:00,ths,5.74
2022-01-14T07:58:00,ths,5.72
2022-01-14T07:59:00,ths,5.78
2022-01-14T08:00:00,ths,5.82
2022-01-14T08:01:00,ths,6.16
2022-01-14T08:02:00,ths,5.37
2022-01-14T08:03:00,ths,6.01
2022-01-14T08:04:00,ths,4.96
2022-01-14T08:05:00,ths,4.44
2022-01-14T08:06:00,ths,4.42
2022-01-14T08:07:00,ths,4.40
2022-01-14T08:08:00,ths,4.56
2022-01-14T08:09:00,ths,5.70
2022-01-14T08:10:00,ths,5.67
2022-01-14T08:11:00,ths,5.94
2022-01-14T08:12:00,ths,5.81
2022-01-14T08:13:00,ths,7.30
2022-01-14T08:14:00,ths,6.74
2022-01-14T08:15:00,ths,6.93
2022-01-14T08:16:00,ths,7.05
2022-01-14T08:17:00,ths,6.81
2022-01-14T08:18:00,ths,5.38
2022-01-14T08:19:00,ths,5.37
2022-01-14T08:20:00,ths,5.37
2022-01-14T08:21:00,ths,5.10
2022-01-14T08:22:00,ths,3.55
2022-01-14T08:23:00,ths,3.62
2022-01-14T08:24:00,ths,3.54
2022-01-14T08:25:00,ths,3.55
2022-01-14T08:26:00,ths,3.53
2022-01-14T08:27:00,ths,3.67
2022-01-14T08:28:00,ths,3.75
2022-01-14T08:29:00,ths,3.75
2022-01-14T08:30:00,ths,3.72
2022-01-14T08:31:00,ths,3.66
2022-01-14T08:32:00,ths,3.93
2022-01-14T08:33:00,ths,5.02
2022-01-14T08:34:00,ths,4.77
2022-01-14T08:35:00,ths,4.86
2022-01-14T08:36:00,ths,4.92
2022-01-14T08:37:00,ths,4.95
2022-01-14T08:38:00,ths,4.85
2022-01-14T08:39:00,ths,4.80
2022-01-14T08:40:00,ths,4.70
2022-01-14T08:41:00,ths,4.76
2022-01-14T08:42:00,ths,3.75
2022-01-14T08:43:00,ths,3.79
2022-01-14T08:44:00,ths,3.78
2022-01-14T08:45:00,ths,3.68
2022-01-14T08:46:00,ths,3.73
2022-01-14T08:47:00,ths,3.62
2022-01-14T08:48:00,ths,4.55
2022-01-14T08:49:00,ths,4.53
2022-01-14T08:50:00,ths,4.51
2022-01-14T08:51:00,ths,4.42
2022-01-14T08:52:00,ths,4.31
2022-01-14T08:53:00,ths,5.39
2022-01-14T08:54:00,ths,5.42
2022-01-14T08:55:00,ths,5.38
2022-01-14T08:56:00,ths,5.44
2022-01-14T08:57:00,ths,5.16
2022-01-14T08:58:00,ths,4.88
2022-01-14T08:59:00,ths,5.83
2022-01-14T09:00:00,ths,5.82
2022-01-14T09:01:00,ths,7.02
2022-01-14T09:02:00,ths,6.93
2022-01-14T09:03:00,ths,6.01
2022-01-14T09:04:00,ths,7.12
2022-01-14T09:05:00,ths,4.91
2022-01-14T09:06:00,ths,7.71
2022-01-14T09:07:00,ths,5.92
2022-01-14T09:08:00,ths,4.77
2022-01-14T09:09:00,ths,4.75
2022-01-14T09:10:00,ths,4.83
2022-01-14T09:11:00,ths,3.81
2022-01-14T09:12:00,ths,3.89
2022-01-14T09:13:00,ths,3.82
2022-01-14T09:14:00,ths,4.71
2022-01-14T09:15:00,ths,4.70
2022-01-14T09:16:00,ths,4.97
2022-01-14T09:17:00,ths,4.98
2022-01-14T09:18:00,ths,5.73
2022-01-14T09:19:00,ths,5.77
2022-01-14T09:20:00,ths,5.53
2022-01-14T09:21:00,ths,5.55
2022-01-14T09:22:00,ths,4.78
2022-01-14T09:23:00,ths,4.80
2022-01-14T09:24:00,ths,4.79
2022-01-14T09:25:00,ths,4.94
2022-01-14T09:26:00,ths,4.96
2022-01-14T09:27:00,ths,4.95
2022-01-14T09:28:00,ths,4.99
2022-01-14T09:29:00,ths,4.85
2022-01-14T09:30:00,ths,6.29
2022-01-14T09:31:00,ths,7.13
2022-01-14T09:32:00,ths,7.32
2022-01-14T09:33:00,ths,6.99
2022-01-14T09:34:00,ths,5.60
2022-01-14T09:35:00,ths,5.46
2022-01-14T09:36:00,ths,5.49
2022-01-14T09:37:00,ths,5.54
2022-01-14T09:38:00,ths,5.50
2022-01-14T09:39:00,ths,6.64
2022-01-14T09:40:00,ths,5.73
2022-01-14T09:41:00,ths,5.66
2022-01-14T09:42:00,ths,6.64
2022-01-14T09:43:00,ths,5.83
2022-01-14T09:44:00,ths,5.97
2022-01-14T09:45:00,ths,4.98
2022-01-14T09:46:00,ths,4.97
2022-01-14T09:47:00,ths,4.94
2022-01-14T09:48:00,ths,5.94
2022-01-14T09:49:00,ths,6.17
2022-01-14T09:50:00,ths,7.73
2022-01-14T09:51:00,ths,7.08
2022-01-14T09:52:00,ths,6.90
2022-01-14T09:53:00,ths,6.91
2022-01-14T09:54:00,ths,6.32
2022-01-14T09:55:00,ths,5.87
2022-01-14T09:56:00,ths,4.12
2022-01-14T09:57:00,ths,4.18
2022-01-14T09:58:00,ths,4.14
2022-01-14T09:59:00,ths,4.20
2022-01-14T10:00:00,ths,4.32
2022-01-14T10:01:00,ths,4.25
2022-01-14T10:02:00,ths,4.23
2022-01-14T10:03:00,ths,4.93
2022-01-14T10:04:00,ths,5.88
2022-01-14T10:05:00,ths,5.97
2022-01-14T10:06:00,ths,6.01
2022-01-14T10:07:00,ths,7.79
2022-01-14T10:08:00,ths,7.70
2022-01-14T10:09:00,ths,7.64
2022-01-14T10:10:00,ths,7.93
2022-01-14T10:11:00,ths,8.17
2022-01-14T10:12:00,ths,7.46
2022-01-14T10:13:00,ths,5.30
2022-01-14T10:14:00,ths,6.95
2022-01-14T10:15:00,ths,8.87
2022-01-14T10:16:00,ths,8.46
2022-01-14T10:17:00,ths,9.27
2022-01-14T10:18:00,ths,8.93
2022-01-14T10:19:00,ths,9.61
2022-01-14T10:20:00,ths,9.89
2022-01-14T10:21:00,ths,8.63
2022-01-14T10:22:00,ths,8.59
2022-01-14T10:23:00,ths,8.71
2022-01-14T10:24:00,ths,7.37
2022-01-14T10:25:00,ths,10.89
2022-01-14T10:26:00,ths,9.96
2022-01-14T10:27:00,ths,11.02
2022-01-14T10:28:00,ths,11.15
2022-01-14T10:29:00,ths,10.12
2022-01-14T10:30:00,ths,10.04
2022-01-14T10:31:00,ths,10.09
2022-01-14T10:32:00,ths,10.03
2022-01-14T10:33:00,ths,10.66
2022-01-14T10:34:00,ths,11.97
2022-01-14T10:35:00,ths,11.63
2022-01-14T10:36:00,ths,12.50
2022-01-14T10:37:00,ths,10.51
2022-01-14T10:38:00,ths,10.35
2022-01-14T10:39:00,ths,10.63
2022-01-14T10:40:00,ths,10.75
2022-01-14T10:41:00,ths,10.93
2022-01-14T10:42:00,ths,12.31
2022-01-14T10:43:00,ths,12.42
2022-01-14T10:44:00,ths,12.36
2022-01-14T10:45:00,ths,10.86
2022-01-14T10:46:00,ths,12.09
2022-01-14T10:47:00,ths,10.55
2022-01-14T10:48:00,ths,12.66
2022-01-14T10:49:00,ths,10.63
2022-01-14T10:50:00,ths,10.27
2022-01-14T10:51:00,ths,10.28
2022-01-14T10:52:00,ths,10.75
2022-01-14T10:53:00,ths,12.02
2022-01-14T10:54:00,ths,12.83
2022-01-14T10:55:00,ths,12.80
2022-01-14T10:56:00,ths,12.01
2022-01-14T10:57:00,ths,10.77
2022-01-14T10:58:00,ths,10.95
2022-01-14T10:59:00,ths,10.90
2022-01-14T11:00:00,ths,10.66
2022-01-14T11:01:00,ths,10.85
2022-01-14T11:02:00,ths,9.68
2022-01-14T11:03:00,ths,9.46
2022-01-14T11:04:00,ths,9.59
2022-01-14T11:05:00,ths,9.67
2022-01-14T11:06:00,ths,9.67
2022-01-14T11:07:00,ths,10.58
2022-01-14T11:08:00,ths,9.50
2022-01-14T11:09:00,ths,9.41
2022-01-14T11:10:00,ths,9.77
2022-01-14T11:11:00,ths,9.67
2022-01-14T11:12:00,ths,9.91
2022-01-14T11:13:00,ths,9.83
2022-01-14T11:14:00,ths,10.95
2022-01-14T11:15:00,ths,10.99
2022-01-14T11:16:00,ths,11.10
2022-01-14T11:17:00,ths,11.03
2022-01-14T11:18:00,ths,11.01
2022-01-14T11:19:00,ths,10.28
2022-01-14T11:20:00,ths,10.79
2022-01-14T11:21:00,ths,10.67
2022-01-14T11:22:00,ths,7.09
2022-01-14T11:23:00,ths,8.14
2022-01-14T11:24:00,ths,8.74
2022-01-14T11:25:00,ths,9.62
2022-01-14T11:26:00,ths,8.53
2022-01-14T11:27:00,ths,7.17
2022-01-14T11:28:00,ths,6.28
2022-01-14T11:29:00,ths,6.27
2022-01-14T11:30:00,ths,6.34
2022-01-14T11:31:00,ths,6.55
2022-01-14T11:32:00,ths,5.88
2022-01-14T11:33:00,ths,6.82
2022-01-14T11:34:00,ths,7.13
2022-01-14T11:35:00,ths,7.15
2022-01-14T11:36:00,ths,7.68
2022-01-14T11:37:00,ths,7.50
2022-01-14T11:38:00,ths,6.48
2022-01-14T11:39:00,ths,5.30
2022-01-14T11:40:00,ths,4.65
2022-01-14T11:41:00,ths,4.69
2022-01-14T11:42:00,ths,4.99
2022-01-14T11:43:00,ths,5.04
2022-01-14T11:44:00,ths,4.95
2022-01-14T11:45:00,ths,4.93
2022-01-14T11:46:00,ths,5.43
2022-01-14T11:47:00,ths,5.14
2022-01-14T11:48:00,ths,5.16
2022-01-14T11:49:00,ths,5.13
2022-01-14T11:50:00,ths,4.95
2022-01-14T11:51:00,ths,5.13
2022-01-14T11:52:00,ths,5.12
2022-01-14T11:53:00,ths,6.53
2022-01-14T11:54:00,ths,6.60
2022-01-14T11:55:00,ths,6.86
2022-01-14T11:56:00,ths,6.67
2022-01-14T11:57:00,ths,6.75
2022-01-14T11:58:00,ths,6.84
2022-01-14T11:59:00,ths,7.01
2022-01-14T12:00:00,ths,7.05
2022-01-14T12:01:00,ths,6.06
2022-01-14T12:02:00,ths,6.92
2022-01-14T12:03:00,ths,7.47
2022-01-14T12:04:00,ths,7.54
2022-01-14T12:05:00,ths,7.36
2022-01-14T12:06:00,ths,6.88
2022-01-14T12:07:00,ths,7.04
2022-01-14T12:08:00,ths,7.26
2022-01-14T12:09:00,ths,6.52
2022-01-14T12:10:00,ths,6.67
2022-01-14T12:11:00,ths,6.46
2022-01-14T12:12:00,ths,5.61
2022-01-14T12:13:00,ths,5.46
2022-01-14T12:14:00,ths,6.82
2022-01-14T12:15:00,ths,7.12
2022-01-14T12:16:00,ths,7.44
2022-01-14T12:17:00,ths,7.48
2022-01-14T12:18:00,ths,7.02
2022-01-14T12:19:00,ths,7.21
2022-01-14T12:20:00,ths,7.10
2022-01-14T12:21:00,ths,6.16
2022-01-14T12:22:00,ths,5.71
2022-01-14T12:23:00,ths,5.80
2022-01-14T12:24:00,ths,5.71
2022-01-14T12:25:00,ths,6.00
2022-01-14T12:26:00,ths,5.17
2022-01-14T12:27:00,ths,5.17
2022-01-14T12:28:00,ths,5.17
2022-01-14T12:29:00,ths,6.64
2022-01-14T12:30:00,ths,4.64
2022-01-14T12:31:00,ths,4.56
2022-01-14T12:32:00,ths,4.49
2022-01-14T12:33:00,ths,4.51
2022-01-14T12:34:00,ths,5.81
2022-01-14T12:35:00,ths,5.68
2022-01-14T12:36:00,ths,6.90
2022-01-14T12:37:00,ths,6.58
2022-01-14T12:38:00,ths,11.09
2022-01-14T12:39:00,ths,11.04
2022-01-14T12:40:00,ths,10.88
2022-01-14T12:41:00,ths,11.03
2022-01-14T12:42:00,ths,11.06
2022-01-14T12:43:00,ths,11.22
2022-01-14T12:44:00,ths,11.14
2022-01-14T12:45:00,ths,11.10
2022-01-14T12:46:00,ths,10.30
2022-01-14T12:47:00,ths,10.40
2022-01-14T12:48:00,ths,10.33
2022-01-14T12:49:00,ths,10.46
2022-01-14T12:50:00,ths,9.30
2022-01-14T12:51:00,ths,9.21
2022-01-14T12:52:00,ths,4.82
2022-01-14T12:53:00,ths,9.09
2022-01-14T12:54:00,ths,10.99
2022-01-14T12:55:00,ths,10.01
2022-01-14T12:56:00,ths,9.94
2022-01-14T12:57:00,ths,9.79
2022-01-14T12:58:00,ths,9.81
2022-01-14T12:59:00,ths,9.70
2022-01-14T13:00:00,ths,10.02
2022-01-14T13:01:00,ths,10.10
2022-01-14T13:02:00,ths,10.14
2022-01-14T13:03:00,ths,9.63
2022-01-14T13:04:00,ths,14.89
2022-01-14T13:05:00,ths,14.86
2022-01-14T13:06:00,ths,14.96
2022-01-14T13:07:00,ths,14.25
2022-01-14T13:08:00,ths,14.38
2022-01-14T13:09:00,ths,14.27
2022-01-14T13:10:00,ths,14.44
2022-01-14T13:11:00,ths,14.44
2022-01-14T13:12:00,ths,14.45
2022-01-14T13:13:00,ths,13.69
2022-01-14T13:14:00,ths,11.62
2022-01-14T13:15:00,ths,10.45
2022-01-14T13:16:00,ths,10.54
2022-01-14T13:17:00,ths,10.74
2022-01-14T13:18:00,ths,15.00
2022-01-14T13:19:00,ths,15.91
2022-01-14T13:20:00,ths,15.91
2022-01-14T13:21:00,ths,15.82
2022-01-14T13:22:00,ths,15.12
2022-01-14T13:23:00,ths,10.74
2022-01-14T13:24:00,ths,9.63
2022-01-14T13:25:00,ths,9.62
2022-01-14T13:26:00,ths,13.89
2022-01-14T13:27:00,ths,13.16
2022-01-14T13:28:00,ths,13.01
2022-01-14T13:29:00,ths,12.96
2022-01-14T13:30:00,ths,13.52
2022-01-14T13:31:00,ths,13.40
2022-01-14T13:32:00,ths,13.52
2022-01-14T13:33:00,ths,13.51
2022-01-14T13:34:00,ths,13.42
2022-01-14T13:35:00,ths,15.23
2022-01-14T13:36:00,ths,15.38
2022-01-14T13:37:00,ths,15.38
2022-01-14T13:38:00,ths,15.63
2022-01-14T13:39:00,ths,13.67
2022-01-14T13:40:00,ths,12.54
2022-01-14T13:41:00,ths,12.43
2022-01-14T13:42:00,ths,11.95